Volver al catálogo

STARLINK-4344

ActivoComunicacionesSSO
NORAD 53072·PAYLOAD·🇺🇸 United States

Lanzado Jul 11, 2022 desde Vandenberg Space Force Base

Loading…

Próximos Pases (próximas 24 horas)

TLE

ActualizadoSource: CelesTrak SupGP

Época: Sep 15, 2026, 01:18 UTC

1 53072C 22077AF  26258.05465278 -.00035784  00000+0 -11105-2 0  2581
2 53072  97.2859  73.8164 0001601  93.0973 326.1970 15.33466812    15

Sigue STARLINK-4344 en tiempo real con AllMySat

Download on the App Store